User: anonymous   Login
Location: Unspecified
(0.0000°N, 0.0000°E)
Time: 02:05:21
(UTC+00:00)
Language:

50 SAT - Orbit

View from above orbital plane
View from above orbital plane
View from above satellite
View from above satellite

Ground track
Ground track

The orbit data is extracted from the following two-line orbital elements,

1 39436U 13066W   18055.39190601  .00084579  00000-0  10179-2 0  9992
2 39436  97.7109 182.5332 0006414 249.5859 110.4708 15.60527652235630
Epoch (UTC): 24 February 2018 09:24:20
Eccentricity: 0.0006414
inclination: 97.7109°
perigee height: 382 km
apogee height: 390 km
right ascension of ascending node: 182.5332°
argument of perigee: 249.5859°
revolutions per day: 15.60527652
mean anomaly at epoch: 110.4708°
orbit number at epoch: 23563

The dashed part of the orbit path shows where the satellite is in the earth's shadow,  

DLR